Location: Gad�tanya
(48.0500°N, 20.8500°E)
Time: 11:57:41
(UTC+00:00)

Helios 1B rocket - Pass Details

Date: 05 July 2020
Orbit: 574 x 584 km, 98.1° (Epoch: 14 August)

Event Time Altitude Azimuth Distance (km) Brightness Sun altitude
Rises 23:48:04 0° 8° (N) 2,817 7.6 -17.7°
Reaches altitude 10° 23:50:18 10° 1° (N) 1,911 6.2 -17.6°
Maximum altitude 23:54:12 42° 291° (WNW) 835 3.2 -17.4°
Enters shadow 23:55:52 28° 240° (WSW) 1,109 3.4 -17.3°
